Location: Unspecified
(51.0000°N, 12.0000°E)
Time: 22:41:30
(UTC+02:00)

ISS - Pass Details

Date: 15 March 2018
Orbit: 402 x 407 km, 51.6° (Epoch: 25 June)

Event Time Altitude Azimuth Distance (km) Brightness Sun altitude
Exits shadow 03:07:12 10° 86° (E) 1,477 -0.4 -30.0°
Drops below altitude 10° 03:07:13 10° 86° (E) 1,483 -0.4 -30.0°
Enters shadow 04:06:05 -63° 281° (WNW) 11,841 3.6 -22.3°
Maximum altitude 04:40:30 68° 199° (SSW) 448 -3.9 -17.3°
